Location: ????????
(54.9045°N, 39.1041°E)
Time: 11:17:19
(UTC+00:00)

COSMOS 2428 - Pass Details

Date: 14 April 2024
Orbit: 845 x 855 km, 70.9° (Epoch: 22 May)

Event Time Altitude Azimuth Distance (km) Brightness Sun altitude
Exits shadow 01:22:48 11° 240° (WSW) 2,428 4.4 -8.6°
Maximum altitude 01:28:09 48° 314° (NW) 1,104 3.2 -8.0°
Drops below altitude 10° 01:33:40 10° 29° (NNE) 2,484 6.1 -7.3°
Sets 01:36:14 0° 35° (NE) 3,421 7.1 -7.0°
